When you browse on this site, cookies collect data to enhance your experience and personalize the content and advertising you see.
Visit our Privacy Policy to learn more. By continuing to use the site, you agree to this use of cookies and data.
  • In Czech Republic
  • List of Countries
  • For 7 days
  • Water Temperature
  • Satellite Maps
  • Weather Map
  • Weather Widgets
  • user-avatar
    Login

    Hourly Weather Whitehorse

    Today, 19 June, Wednesday

    Time Temperature Precipitation Wind Pressure Humidity
    00:00 +8°C° 0.4 mm 1 mps 686 mmHg 94%
    01:00 +7°C° 0.2 mm 1 mps 687 mmHg 94%
    02:00 +7°C° 0.2 mm 1 mps 687 mmHg 94%
    03:00 +7°C° 0.2 mm 1 mps 687 mmHg 94%
    04:00 +7°C° 0.2 mm 1 mps 688 mmHg 94%
    05:00 +7°C° 0.2 mm 1 mps 688 mmHg 93%
    06:00 +8°C° 0.2 mm 1 mps 688 mmHg 92%
    07:00 +9°C° 0 mm 1 mps 689 mmHg 88%
    08:00 +10°C° 0 mm 1 mps 689 mmHg 84%
    09:00 +10°C° 0 mm 1 mps 689 mmHg 80%
    10:00 +12°C° 0 mm 1 mps 689 mmHg 75%
    11:00 +13°C° 0 mm 2 mps 690 mmHg 71%
    12:00 +14°C° 0 mm 2 mps 690 mmHg 66%
    13:00 +15°C° 0 mm 2 mps 690 mmHg 61%
    14:00 +16°C° 0 mm 2 mps 690 mmHg 57%
    15:00 +18°C° 0 mm 2 mps 690 mmHg 52%
    16:00 +17°C° 0.2 mm 2 mps 690 mmHg 55%
    17:00 +17°C° 0.2 mm 2 mps 690 mmHg 57%
    18:00 +17°C° 0.2 mm 2 mps 691 mmHg 60%
    19:00 +16°C° 0.4 mm 1 mps 691 mmHg 67%
    20:00 +14°C° 0.4 mm 1 mps 691 mmHg 74%
    21:00 +13°C° 0.4 mm 1 mps 691 mmHg 81%
    22:00 +12°C° 0.1 mm 1 mps 691 mmHg 83%
    23:00 +12°C° 0.1 mm 1 mps 692 mmHg 84%

    Tomorrow, 20 June, Thursday

    Time Temperature Precipitation Wind Pressure Humidity
    00:00 +10°C° 0.1 mm 0 mps 692 mmHg 86%
    01:00 +9°C° 0 mm 0 mps 692 mmHg 87%
    02:00 +10°C° 0 mm 1 mps 692 mmHg 88%
    03:00 +10°C° 0 mm 1 mps 693 mmHg 89%
    04:00 +11°C° 0 mm 1 mps 693 mmHg 85%
    05:00 +12°C° 0 mm 0 mps 693 mmHg 81%
    06:00 +13°C° 0 mm 0 mps 694 mmHg 76%
    07:00 +15°C° 0 mm 0 mps 694 mmHg 68%
    08:00 +19°C° 0 mm 1 mps 694 mmHg 60%
    09:00 +21°C° 0 mm 1 mps 695 mmHg 51%
    10:00 +22°C° 0 mm 1 mps 695 mmHg 45%
    11:00 +23°C° 0 mm 1 mps 695 mmHg 38%
    12:00 +25°C° 0 mm 1 mps 695 mmHg 31%
    13:00 +25°C° 0 mm 1 mps 695 mmHg 30%
    14:00 +23°C° 0 mm 0 mps 695 mmHg 30%
    15:00 +22°C° 0 mm 0 mps 694 mmHg 30%
    16:00 +22°C° 0 mm 0 mps 694 mmHg 31%
    17:00 +21°C° 0 mm 0 mps 694 mmHg 32%
    18:00 +21°C° 0 mm 0 mps 694 mmHg 33%
    19:00 +19°C° 0 mm 0 mps 693 mmHg 37%
    20:00 +18°C° 0 mm 0 mps 693 mmHg 42%
    21:00 +16°C° 0 mm 0 mps 693 mmHg 46%
    22:00 +16°C° 0 mm 0 mps 693 mmHg 47%
    23:00 +15°C° 0 mm 0 mps 693 mmHg 48%

    Day after tomorrow, 21 June, Friday

    Time Temperature Precipitation Wind Pressure Humidity
    00:00 +14°C° 0 mm 0 mps 693 mmHg 49%
    01:00 +14°C° 0 mm 0 mps 693 mmHg 50%
    02:00 +14°C° 0 mm 0 mps 693 mmHg 51%
    03:00 +13°C° 0 mm 0 mps 693 mmHg 52%
    04:00 +15°C° 0 mm 0 mps 693 mmHg 50%
    05:00 +16°C° 0 mm 0 mps 693 mmHg 47%
    06:00 +17°C° 0 mm 0 mps 693 mmHg 45%
    07:00 +19°C° 0 mm 0 mps 693 mmHg 40%
    08:00 +21°C° 0 mm 0 mps 693 mmHg 36%
    09:00 +22°C° 0 mm 0 mps 693 mmHg 31%
    10:00 +23°C° 0 mm 0 mps 692 mmHg 30%
    11:00 +23°C° 0 mm 0 mps 692 mmHg 29%
    12:00 +23°C° 0 mm 0 mps 692 mmHg 28%
    13:00 +23°C° 0 mm 0 mps 692 mmHg 28%
    14:00 +23°C° 0 mm 0 mps 691 mmHg 28%
    15:00 +25°C° 0 mm 1 mps 691 mmHg 28%
    16:00 +25°C° 0 mm 1 mps 691 mmHg 30%
    17:00 +24°C° 0 mm 1 mps 690 mmHg 32%
    18:00 +24°C° 0 mm 1 mps 690 mmHg 34%
    19:00 +22°C° 0 mm 1 mps 689 mmHg 39%
    20:00 +21°C° 0 mm 1 mps 689 mmHg 43%
    21:00 +19°C° 0 mm 1 mps 688 mmHg 48%
    22:00 +18°C° 0 mm 1 mps 688 mmHg 52%
    23:00 +16°C° 0 mm 1 mps 688 mmHg 56%

    22 June, Saturday

    Time Temperature Precipitation Wind Pressure Humidity
    00:00 +15°C° 0 mm 1 mps 688 mmHg 60%
    01:00 +12°C° 1.3 mm 2 mps 685 mmHg 90%
    02:00 +12°C° 1.3 mm 2 mps 685 mmHg 93%
    03:00 +12°C° 1.3 mm 1 mps 685 mmHg 95%
    04:00 +12°C° 1.9 mm 1 mps 685 mmHg 94%
    05:00 +12°C° 1.9 mm 2 mps 685 mmHg 92%
    06:00 +12°C° 1.9 mm 2 mps 685 mmHg 91%
    07:00 +13°C° 0.5 mm 2 mps 685 mmHg 87%
    08:00 +13°C° 0.5 mm 2 mps 685 mmHg 82%
    09:00 +14°C° 0.5 mm 2 mps 686 mmHg 78%
    10:00 +13°C° 0.4 mm 2 mps 685 mmHg 79%
    11:00 +12°C° 0.4 mm 3 mps 685 mmHg 79%
    12:00 +12°C° 0.4 mm 3 mps 685 mmHg 79%
    13:00 +13°C° 0.1 mm 3 mps 686 mmHg 74%
    14:00 +15°C° 0.1 mm 2 mps 686 mmHg 68%
    15:00 +16°C° 0.1 mm 2 mps 686 mmHg 63%
    16:00 +16°C° 0 mm 2 mps 687 mmHg 62%
    17:00 +16°C° 0 mm 2 mps 687 mmHg 62%
    18:00 +16°C° 0 mm 1 mps 687 mmHg 61%
    19:00 +14°C° 0 mm 1 mps 687 mmHg 67%
    20:00 +13°C° 0 mm 1 mps 687 mmHg 72%
    21:00 +12°C° 0 mm 1 mps 687 mmHg 78%
    22:00 +11°C° 0 mm 1 mps 687 mmHg 81%
    23:00 +10°C° 0 mm 1 mps 687 mmHg 84%

    23 June, Sunday

    Time Temperature Precipitation Wind Pressure Humidity
    00:00 +9°C° 0 mm 1 mps 687 mmHg 87%
    01:00 +9°C° 0 mm 1 mps 687 mmHg 88%
    02:00 +9°C° 0 mm 1 mps 687 mmHg 89%
    03:00 +9°C° 0 mm 1 mps 687 mmHg 90%
    04:00 +10°C° 0 mm 1 mps 688 mmHg 83%
    05:00 +12°C° 0 mm 1 mps 688 mmHg 76%
    06:00 +14°C° 0 mm 1 mps 688 mmHg 69%
    07:00 +15°C° 0 mm 1 mps 688 mmHg 63%
    08:00 +18°C° 0 mm 1 mps 689 mmHg 58%
    09:00 +20°C° 0 mm 1 mps 689 mmHg 52%
    10:00 +21°C° 0 mm 1 mps 689 mmHg 47%
    11:00 +23°C° 0 mm 1 mps 689 mmHg 42%
    12:00 +24°C° 0 mm 1 mps 689 mmHg 38%
    13:00 +24°C° 0 mm 1 mps 689 mmHg 37%
    14:00 +24°C° 0 mm 1 mps 689 mmHg 37%
    15:00 +24°C° 0 mm 1 mps 689 mmHg 37%
    16:00 +24°C° 0 mm 1 mps 689 mmHg 38%
    17:00 +24°C° 0 mm 1 mps 688 mmHg 39%
    18:00 +23°C° 0 mm 1 mps 688 mmHg 41%
    19:00 +20°C° 0 mm 0 mps 688 mmHg 46%
    20:00 +18°C° 0 mm 0 mps 688 mmHg 51%
    21:00 +16°C° 0 mm 0 mps 688 mmHg 56%
    22:00 +16°C° 0 mm 0 mps 688 mmHg 57%
    23:00 +15°C° 0 mm 0 mps 688 mmHg 58%

    24 June, Monday

    Time Temperature Precipitation Wind Pressure Humidity
    00:00 +15°C° 0 mm 0 mps 688 mmHg 60%
    01:00 +14°C° 0 mm 0 mps 688 mmHg 60%
    02:00 +14°C° 0 mm 0 mps 688 mmHg 61%
    03:00 +14°C° 0 mm 0 mps 688 mmHg 62%
    04:00 +15°C° 0 mm 0 mps 688 mmHg 59%
    05:00 +16°C° 0 mm 0 mps 688 mmHg 56%
    06:00 +18°C° 0 mm 0 mps 688 mmHg 53%
    07:00 +19°C° 0 mm 0 mps 688 mmHg 48%
    08:00 +23°C° 0 mm 1 mps 689 mmHg 42%
    09:00 +25°C° 0 mm 1 mps 689 mmHg 37%
    10:00 +25°C° 0 mm 1 mps 688 mmHg 36%
    11:00 +25°C° 0 mm 1 mps 688 mmHg 34%
    12:00 +25°C° 0 mm 1 mps 688 mmHg 33%
    13:00 +25°C° 0 mm 1 mps 688 mmHg 32%
    14:00 +24°C° 0 mm 0 mps 687 mmHg 32%
    15:00 +24°C° 0 mm 0 mps 687 mmHg 31%
    16:00 +24°C° 0 mm 0 mps 687 mmHg 32%
    17:00 +23°C° 0 mm 0 mps 687 mmHg 33%
    18:00 +23°C° 0 mm 0 mps 686 mmHg 34%
    19:00 +21°C° 0 mm 0 mps 686 mmHg 39%
    20:00 +20°C° 0 mm 0 mps 686 mmHg 44%
    21:00 +18°C° 0 mm 0 mps 685 mmHg 49%
    22:00 +20°C° 0 mm 1 mps 685 mmHg 51%
    23:00 +19°C° 0 mm 1 mps 685 mmHg 53%
    Show more